Flag for USA

Past Weather in Atlanta, Georgia, USA — Yesterday and Last 2 Weeks

Now
58 °F

Sunny.


Feels Like: 58 °F
Forecast: 72 / 50 °F
Wind: 3 mph from Southwest

Location: Fulton County Airport-Brown Field
Current Time: Sep 30, 2020 at 10:53:41 am
Latest Report: Sep 30, 2020 at 9:53 am
Visibility: 10 mi
Pressure30.09 "Hg
Humidity: 75%
Dew Point: 50 °F
Location of AtlantaLocation

Past Weather in Atlanta — Graph

°F

Atlanta Temperature Yesterday

Maximum temperature yesterday: 69 °F (at 12:53 am)
Minimum temperature yesterday: 54 °F (at 9:53 pm)
Average temperature yesterday: 59 °F

High & Low Weather Summary for the Past Weeks

 TemperatureHumidityPressure
High83 °F (Sep 28, 2:53 pm)93% (Sep 17, 3:27 am)30.40 "Hg (Sep 17, 3:27 am)
Low50 °F (Sep 22, 6:53 am)33% (Sep 21, 3:53 pm)29.72 "Hg (Sep 17, 6:53 am)
Average68 °F77%30.00 "Hg
* Reported Sep 15 8:53 am — Sep 30 8:53 am, Atlanta. Weather by CustomWeather, © 2020

Note: Actual official high and low records may vary slightly from our data, if they occured in-between our weather recording intervals... More about our weather records

Atlanta Weather History for the Previous 24 Hours

Scroll right to see more
 ConditionsComfort  
Time TempWeatherWind HumidityBarometerVisibility
8:53 am
Wed, Sep 30
53 °FSunny.No wind86%30.06 "Hg10 mi
7:53 am50 °FSunny.3 mph86%30.05 "Hg10 mi
6:53 am50 °FClear.No wind86%30.03 "Hg10 mi
5:53 am50 °FClear.No wind89%30.02 "Hg10 mi
4:53 am51 °FClear.3 mph86%30.01 "Hg10 mi
3:53 am51 °FClear.3 mph89%29.99 "Hg10 mi
2:53 am53 °FClear.3 mph83%29.99 "Hg10 mi
1:53 am53 °FClear.3 mph86%29.98 "Hg10 mi
12:53 am53 °FClear.3 mph93%29.97 "Hg10 mi
11:53 pm
Tue, Sep 29
54 °FClear.No wind90%29.97 "Hg10 mi
10:53 pm55 °FClear.No wind90%29.95 "Hg10 mi
9:53 pm54 °FClear.No wind90%29.94 "Hg10 mi
8:53 pm57 °FClear.No wind87%29.92 "Hg10 mi
7:53 pm58 °FPassing clouds.3 mph81%29.90 "Hg10 mi
6:53 pm61 °FSunny.6 mph72%29.88 "Hg10 mi
5:53 pm61 °FSunny.7 mph75%29.87 "Hg10 mi
4:53 pm61 °FPassing clouds.10 mph81%29.84 "Hg10 mi
3:53 pm59 °FBroken clouds.No wind87%29.84 "Hg10 mi
3:15 pm59 °FLight rain. Mostly cloudy.3 mph87%29.88 "Hg10 mi
2:53 pm60 °FLight rain. Mostly cloudy.6 mph83%29.90 "Hg10 mi
2:15 pm59 °FLight rain. Low clouds.3 mph87%29.90 "Hg10 mi
2:00 pm59 °FLight rain. Overcast.No wind90%29.91 "Hg10 mi
1:04 pm59 °FLight rain. Mostly cloudy.6 mph87%29.93 "Hg10 mi
12:53 pm59 °FCloudy.5 mph87%29.91 "Hg10 mi
11:53 am59 °FRain. Fog.10 mph87%29.93 "Hg4 mi
10:53 am58 °FMore clouds than sun.6 mph90%29.92 "Hg10 mi
Weather by CustomWeather, © 2020

See weather overview